Yakima, WA

6:16 PM PDT on May 25, 2017 (GMT -0700)
Yakima Air Term-McAllister

Weather History for KYKM - June, 2013

Change the Weather History Date:

Sunday, June 23, 2013

  Actual Average Record
Temperature  
Mean Temperature 65 °F 65 °F  
Max Temperature 73 °F 81 °F 105 °F (1992)
Min Temperature 56 °F 50 °F 38 °F (2003)
Degree Days  
Heating Degree Days 0 2  
Month to date heating degree days 38 84  
Since 1 June heating degree days 38 84  
Since 1 July heating degree days 5185 6028  
Cooling Degree Days 0 3  
Month to date cooling degree days 64 39  
Year to date cooling degree days 116 59  
Since 1 June cooling degree days 64 39  
Growing Degree Days 16 (Base 50)    
Moisture  
Dew Point 54 °F    
Average Humidity 67    
Maximum Humidity 90    
Minimum Humidity 44    
Precipitation  
Precipitation 0.10 in 0.01 in 0.11 in (1966)
Month to date precipitation 0.25 0.51  
Year to date precipitation 4.03 4.18  
Snow  
Snow 0.00 in 0.00 in 0.00 in (2002)
Month to date snowfall 0.0 0.0  
Year to date snowfall 1.1 8.6  
Since 1 July snowfall 15.3 21.6  
Snow Depth 0.00 in    
Sea Level Pressure  
Sea Level Pressure 29.75 in    
Wind  
Wind Speed 4 mph (West)    
Max Wind Speed 9 mph    
Max Gust Speed 14 mph    
Visibility 10 miles    
Events Rain    
T = Trace of Precipitation, MM = Missing Value Source: NWS Daily Summary

Daily Weather History Graph

Daily Weather History Graph

Search for Another Location

Airport or City:

Trip Planner

Search our weather history database for the weather conditions in past years. The results will help you decide how hot, cold, wet, or windy it might be!

Date:

Astronomy

Jun. 23, 2013 Rise Set
Actual Time 5:09 AM PDT 8:59 PM PDT
Civil Twilight 4:30 AM PDT 9:38 PM PDT
Nautical Twilight 3:36 AM PDT 10:32 PM PDT
Astronomical Twilight 2:19 AM PDT 11:49 PM PDT
Moon 9:10 PM PDT (6/23) 5:37 AM PDT (6/23)
Length of Visible Light 17h 08m
Length of Day
15h 49m
Full, 100% of the Moon is Illuminated
Jun 23
Full
Jun 29
Last Quarter
Jul 8
New
Jul 15
First Quarter
Jul 22
Full

Hourly Weather History & Observations

Time (PDT) Temp. Dew Point Humidity Pressure Visibility Wind Dir Wind Speed Gust Speed Precip Events Conditions
12:53 AM 59.0 °F 48.9 °F 69% 29.87 in 10.0 mi West 5.8 mph - N/A   Clear
1:53 AM 57.0 °F 50.0 °F 77% 29.86 in 10.0 mi West 6.9 mph - N/A   Clear
2:53 AM 57.9 °F 50.0 °F 75% 29.84 in 10.0 mi West 6.9 mph - N/A   Clear
3:53 AM 59.0 °F 51.1 °F 75% 29.83 in 10.0 mi Calm Calm - N/A   Overcast
4:53 AM 59.0 °F 54.0 °F 83% 29.83 in 10.0 mi West 3.5 mph - 0.00 in   Overcast
5:53 AM 60.1 °F 54.0 °F 80% 29.83 in 10.0 mi WNW 3.5 mph - 0.01 in Rain Light Rain
6:53 AM 62.1 °F 54.0 °F 75% 29.82 in 10.0 mi West 3.5 mph - 0.00 in Rain Light Rain
7:53 AM 63.0 °F 55.0 °F 75% 29.81 in 10.0 mi WSW 3.5 mph - 0.00 in   Overcast
8:53 AM 66.0 °F 54.0 °F 65% 29.80 in 10.0 mi Calm Calm - 0.00 in   Overcast
9:53 AM 68.0 °F 54.0 °F 61% 29.79 in 10.0 mi Calm Calm - N/A   Overcast
10:53 AM 71.1 °F 52.0 °F 51% 29.78 in 10.0 mi West 3.5 mph - N/A   Overcast
11:53 AM 72.0 °F 50.0 °F 46% 29.77 in 10.0 mi West 5.8 mph - N/A   Overcast
12:53 PM 70.0 °F 52.0 °F 53% 29.77 in 10.0 mi WSW 5.8 mph - 0.00 in Rain Light Rain
1:53 PM 70.0 °F 55.0 °F 59% 29.75 in 10.0 mi WNW 4.6 mph - 0.03 in Rain Light Rain
2:53 PM 72.0 °F 53.1 °F 51% 29.73 in 10.0 mi NW 6.9 mph - 0.00 in   Overcast
3:53 PM 73.0 °F 51.1 °F 46% 29.71 in 10.0 mi NW 4.6 mph - N/A   Mostly Cloudy
4:53 PM 73.0 °F 50.0 °F 44% 29.69 in 10.0 mi NW 4.6 mph - 0.00 in   Overcast
5:53 PM 72.0 °F 52.0 °F 49% 29.68 in 10.0 mi West 5.8 mph - 0.00 in Rain Light Rain
6:53 PM 66.0 °F 57.0 °F 73% 29.67 in 10.0 mi WSW 5.8 mph - 0.01 in Rain Light Rain
7:53 PM 64.9 °F 57.9 °F 78% 29.67 in 10.0 mi WSW 5.8 mph - 0.01 in Rain Light Rain
8:53 PM 63.0 °F 57.0 °F 81% 29.66 in 9.0 mi WSW 3.5 mph - 0.03 in Rain Light Rain
9:53 PM 62.1 °F 59.0 °F 90% 29.66 in 10.0 mi Calm Calm - 0.01 in Rain Light Rain
10:53 PM 61.0 °F 57.9 °F 90% 29.66 in 10.0 mi WSW 3.5 mph - 0.00 in   Mostly Cloudy
11:53 PM 60.1 °F 57.0 °F 90% 29.65 in 10.0 mi Calm Calm - N/A   Partly Cloudy